Location: Veytaux
(46.4185°N, 6.9320°E)
Time: 08:28:35
(UTC+00:00)

USA 267 - Pass Details

Date: 27 May 2022
Orbit: 1101 x 1106 km, 123.0° (Epoch: 28 June)

Event Time Altitude Azimuth Distance (km) Brightness Sun altitude
Exits shadow 00:16:54 35° 167° (SSE) 1,713 3.8 -21.5°
Maximum altitude 00:19:31 54° 225° (SW) 1,318 3.3 -21.4°
Drops below altitude 10° 00:25:55 10° 302° (WNW) 2,965 5.7 -21.1°
Sets 00:28:29 0° 307° (NW) 3,926 6.5 -21.0°
